Tracking 19969 objects as of 13-Nov-2019
Live streaming from Space Station
objects crossing your sky now
Track the group of recently launched Starlink satellites

NATO 3D

Track NATO 3D now!
NATO 3D is classified as:


NORAD ID: 15391
Int'l Code: 1984-115A
Perigee: 36,916.7 km
Apogee: 37,790.0 km
Inclination: 14.5 °
Period: 1,516.5 minutes
Semi major axis: 43724 km
RCS: 5.3188 m2 (large)
Launch date: November 14, 1984
Source: North Atlantic Treaty Organization (NATO)
Launch site: AIR FORCE EASTERN TEST RANGE (AFETR)
aabbcc
Your satellite tracking list
Your tracking list is empty




NASA's NSSDC Master Catalog

Two Line Element Set (TLE):
1 15391U 84115A   19317.50411106 -.00000123  00000-0  00000+0 0  9993
2 15391  14.5017  10.0647 0099861  73.5667 277.7283  0.94954973125019
Source of the keplerian elements: AFSPC